contact:dominique.lefevre@mio.osupytheas.fr, maurice.libes@osupytheas.fr, didier.mallarino@osupytheas.fr
Project:EMSO http://www.emso-fr.org/EMSO-France
Depth: 2436.0 m
Title:EMSO Ligure Ouest : Data MII capteur MICROCAT
DateTime_Computer,Latitude,Longitude,Temperature,Conductivity,Pressure,DateTime_Instrument
DateTime_Computer,Latitude,Longitude,degC,S m-1,dbar,DateTime_Instrument
2022-12-08T00:00:02Z,42.805,6.029,13.3024,4.60080,2470.52,2022-12-08T02:05:56Z
2022-12-08T00:03:05Z,42.805,6.029,13.3022,4.60103,2470.553,2022-12-08T02:08:59Z
2022-12-08T00:06:08Z,42.805,6.029,13.3023,4.60082,2470.507,2022-12-08T02:12:02Z
2022-12-08T00:09:11Z,42.805,6.029,13.3015,4.60079,2470.483,2022-12-08T02:15:05Z
2022-12-08T00:12:14Z,42.805,6.029,13.3018,4.60091,2470.507,2022-12-08T02:18:08Z
2022-12-08T00:15:17Z,42.805,6.029,13.3026,4.60095,2470.483,2022-12-08T02:21:11Z
2022-12-08T00:18:20Z,42.805,6.029,13.3016,4.60105,2470.497,2022-12-08T02:24:14Z
2022-12-08T00:21:23Z,42.805,6.029,13.3026,4.60103,2470.507,2022-12-08T02:27:17Z
2022-12-08T00:24:26Z,42.805,6.029,13.3025,4.60084,2470.507,2022-12-08T02:30:20Z
2022-12-08T00:27:29Z,42.805,6.029,13.3025,4.60097,2470.544,2022-12-08T02:33:23Z
2022-12-08T00:30:32Z,42.805,6.029,13.3019,4.60110,2470.507,2022-12-08T02:36:27Z
2022-12-08T00:33:35Z,42.805,6.029,13.3029,4.60109,2470.544,2022-12-08T02:39:30Z
2022-12-08T00:36:39Z,42.805,6.029,13.3029,4.60106,2470.483,2022-12-08T02:42:33Z
2022-12-08T00:39:42Z,42.805,6.029,13.3025,4.60099,2470.507,2022-12-08T02:45:36Z
2022-12-08T00:42:45Z,42.805,6.029,13.3021,4.60119,2470.497,2022-12-08T02:48:39Z
2022-12-08T00:45:48Z,42.805,6.029,13.3028,4.60114,2470.497,2022-12-08T02:51:42Z
2022-12-08T00:48:51Z,42.805,6.029,13.3031,4.60104,2470.497,2022-12-08T02:54:45Z
2022-12-08T00:51:54Z,42.805,6.029,13.3024,4.60116,2470.483,2022-12-08T02:57:48Z
2022-12-08T00:54:57Z,42.805,6.029,13.3019,4.60107,2470.53,2022-12-08T03:00:51Z
2022-12-08T00:58:00Z,42.805,6.029,13.3021,4.60089,2470.507,2022-12-08T03:03:54Z
2022-12-08T01:01:03Z,42.805,6.029,13.3026,4.60092,2470.483,2022-12-08T03:06:57Z
2022-12-08T01:04:06Z,42.805,6.029,13.3021,4.60096,2470.483,2022-12-08T03:10:00Z
2022-12-08T01:07:09Z,42.805,6.029,13.3022,4.60094,2470.497,2022-12-08T03:13:04Z
2022-12-08T01:10:12Z,42.805,6.029,13.3033,4.60093,2470.497,2022-12-08T03:16:07Z
2022-12-08T01:13:16Z,42.805,6.029,13.3017,4.60101,2470.483,2022-12-08T03:19:10Z
2022-12-08T01:16:19Z,42.805,6.029,13.3025,4.60088,2470.53,2022-12-08T03:22:13Z
2022-12-08T01:19:22Z,42.805,6.029,13.3018,4.60094,2470.507,2022-12-08T03:25:16Z
2022-12-08T01:22:25Z,42.805,6.029,13.3026,4.60102,2470.507,2022-12-08T03:28:19Z
2022-12-08T01:25:28Z,42.805,6.029,13.3027,4.60091,2470.483,2022-12-08T03:31:22Z
2022-12-08T01:28:31Z,42.805,6.029,13.3019,4.60087,2470.507,2022-12-08T03:34:25Z
2022-12-08T01:31:34Z,42.805,6.029,13.3026,4.60102,2470.483,2022-12-08T03:37:28Z
2022-12-08T01:34:37Z,42.805,6.029,13.3025,4.60091,2470.52,2022-12-08T03:40:31Z
2022-12-08T01:37:40Z,42.805,6.029,13.3024,4.60099,2470.507,2022-12-08T03:43:34Z
2022-12-08T01:40:43Z,42.805,6.029,13.3025,4.60104,2470.483,2022-12-08T03:46:37Z
2022-12-08T01:43:46Z,42.805,6.029,13.3028,4.60105,2470.53,2022-12-08T03:49:41Z
2022-12-08T01:46:49Z,42.805,6.029,13.3031,4.60113,2470.507,2022-12-08T03:52:44Z
2022-12-08T01:49:52Z,42.805,6.029,13.3028,4.60107,2470.544,2022-12-08T03:55:47Z
2022-12-08T01:52:56Z,42.805,6.029,13.3024,4.60092,2470.52,2022-12-08T03:58:50Z
2022-12-08T01:55:59Z,42.805,6.029,13.3023,4.60092,2470.507,2022-12-08T04:01:53Z
2022-12-08T01:59:02Z,42.805,6.029,13.3027,4.60097,2470.507,2022-12-08T04:04:56Z
2022-12-08T02:02:05Z,42.805,6.029,13.3019,4.60087,2470.507,2022-12-08T04:07:59Z
2022-12-08T02:05:08Z,42.805,6.029,13.3034,4.60110,2470.53,2022-12-08T04:11:02Z
2022-12-08T02:08:11Z,42.805,6.029,13.3031,4.60104,2470.507,2022-12-08T04:14:05Z
2022-12-08T02:11:14Z,42.805,6.029,13.3019,4.60125,2470.497,2022-12-08T04:17:08Z
2022-12-08T02:14:17Z,42.805,6.029,13.3025,4.60104,2470.53,2022-12-08T04:20:11Z
2022-12-08T02:17:20Z,42.805,6.029,13.3036,4.60099,2470.507,2022-12-08T04:23:14Z
2022-12-08T02:20:23Z,42.805,6.029,13.3021,4.60108,2470.507,2022-12-08T04:26:18Z
2022-12-08T02:23:26Z,42.805,6.029,13.3029,4.60113,2470.53,2022-12-08T04:29:21Z
2022-12-08T02:26:29Z,42.805,6.029,13.3022,4.60091,2470.52,2022-12-08T04:32:24Z
2022-12-08T02:29:33Z,42.805,6.029,13.3025,4.60087,2470.53,2022-12-08T04:35:27Z
2022-12-08T02:32:36Z,42.805,6.029,13.3024,4.60099,2470.544,2022-12-08T04:38:30Z
2022-12-08T02:35:39Z,42.805,6.029,13.3021,4.60108,2470.53,2022-12-08T04:41:33Z
2022-12-08T02:38:42Z,42.805,6.029,13.3024,4.60127,2470.53,2022-12-08T04:44:36Z
2022-12-08T02:41:45Z,42.805,6.029,13.3025,4.60105,2470.53,2022-12-08T04:47:39Z
2022-12-08T02:44:48Z,42.805,6.029,13.3028,4.60114,2470.567,2022-12-08T04:50:42Z
2022-12-08T02:47:51Z,42.805,6.029,13.3019,4.60087,2470.53,2022-12-08T04:53:45Z
2022-12-08T02:50:54Z,42.805,6.029,13.3022,4.60109,2470.53,2022-12-08T04:56:48Z
2022-12-08T02:53:57Z,42.805,6.029,13.3024,4.60104,2470.567,2022-12-08T04:59:51Z
2022-12-08T02:57:00Z,42.805,6.029,13.3025,4.60109,2470.553,2022-12-08T05:02:55Z
2022-12-08T03:00:03Z,42.805,6.029,13.3021,4.60106,2470.53,2022-12-08T05:05:58Z
2022-12-08T03:03:06Z,42.805,6.029,13.3031,4.60102,2470.553,2022-12-08T05:09:01Z
2022-12-08T03:06:09Z,42.805,6.029,13.3040,4.60110,2470.544,2022-12-08T05:12:04Z
2022-12-08T03:09:13Z,42.805,6.029,13.3030,4.60097,2470.53,2022-12-08T05:15:07Z
2022-12-08T03:12:16Z,42.805,6.029,13.3033,4.60103,2470.577,2022-12-08T05:18:10Z
2022-12-08T03:15:19Z,42.805,6.029,13.3029,4.60102,2470.553,2022-12-08T05:21:13Z
2022-12-08T03:18:22Z,42.805,6.029,13.3026,4.60117,2470.53,2022-12-08T05:24:16Z
2022-12-08T03:21:25Z,42.805,6.029,13.3023,4.60127,2470.6,2022-12-08T05:27:19Z
2022-12-08T03:24:28Z,42.805,6.029,13.3034,4.60106,2470.567,2022-12-08T05:30:22Z
2022-12-08T03:27:31Z,42.805,6.029,13.3036,4.60128,2470.577,2022-12-08T05:33:25Z
2022-12-08T03:30:34Z,42.805,6.029,13.3040,4.60120,2470.6,2022-12-08T05:36:28Z
2022-12-08T03:33:37Z,42.805,6.029,13.3033,4.60110,2470.591,2022-12-08T05:39:31Z
2022-12-08T03:36:40Z,42.805,6.029,13.3021,4.60111,2470.6,2022-12-08T05:42:35Z
2022-12-08T03:39:43Z,42.805,6.029,13.3022,4.60119,2470.577,2022-12-08T05:45:38Z
2022-12-08T03:42:46Z,42.805,6.029,13.3031,4.60119,2470.591,2022-12-08T05:48:41Z
2022-12-08T03:45:50Z,42.805,6.029,13.3030,4.60113,2470.624,2022-12-08T05:51:44Z
2022-12-08T03:48:53Z,42.805,6.029,13.3024,4.60104,2470.591,2022-12-08T05:54:47Z
2022-12-08T03:51:56Z,42.805,6.029,13.3021,4.60130,2470.614,2022-12-08T05:57:50Z
2022-12-08T03:54:59Z,42.805,6.029,13.3025,4.60117,2470.577,2022-12-08T06:00:53Z
2022-12-08T03:58:02Z,42.805,6.029,13.3021,4.60105,2470.591,2022-12-08T06:03:56Z
2022-12-08T04:01:05Z,42.805,6.029,13.3026,4.60105,2470.577,2022-12-08T06:06:59Z
2022-12-08T04:04:08Z,42.805,6.029,13.3026,4.60109,2470.614,2022-12-08T06:10:02Z
2022-12-08T04:07:11Z,42.805,6.029,13.3031,4.60101,2470.624,2022-12-08T06:13:05Z
2022-12-08T04:10:14Z,42.805,6.029,13.3029,4.60099,2470.637,2022-12-08T06:16:08Z
2022-12-08T04:13:17Z,42.805,6.029,13.3037,4.60117,2470.6,2022-12-08T06:19:12Z
2022-12-08T04:16:20Z,42.805,6.029,13.3017,4.60115,2470.624,2022-12-08T06:22:15Z
2022-12-08T04:19:23Z,42.805,6.029,13.3024,4.60103,2470.646,2022-12-08T06:25:18Z
2022-12-08T04:22:26Z,42.805,6.029,13.3030,4.60102,2470.6,2022-12-08T06:28:21Z
2022-12-08T04:25:30Z,42.805,6.029,13.3034,4.60114,2470.646,2022-12-08T06:31:24Z
2022-12-08T04:28:33Z,42.805,6.029,13.3022,4.60098,2470.624,2022-12-08T06:34:27Z
2022-12-08T04:31:36Z,42.805,6.029,13.3024,4.60080,2470.661,2022-12-08T06:37:30Z
2022-12-08T04:34:39Z,42.805,6.029,13.3031,4.60106,2470.67,2022-12-08T06:40:33Z
2022-12-08T04:37:42Z,42.805,6.029,13.3020,4.60106,2470.661,2022-12-08T06:43:36Z
2022-12-08T04:40:45Z,42.805,6.029,13.3024,4.60115,2470.624,2022-12-08T06:46:39Z
2022-12-08T04:43:48Z,42.805,6.029,13.3020,4.60108,2470.67,2022-12-08T06:49:42Z
2022-12-08T04:46:51Z,42.805,6.029,13.3019,4.60102,2470.684,2022-12-08T06:52:45Z
2022-12-08T04:49:54Z,42.805,6.029,13.3018,4.60082,2470.646,2022-12-08T06:55:49Z
2022-12-08T04:52:57Z,42.805,6.029,13.3027,4.60110,2470.646,2022-12-08T06:58:52Z
2022-12-08T04:56:00Z,42.805,6.029,13.3019,4.60089,2470.684,2022-12-08T07:01:55Z
2022-12-08T04:59:03Z,42.805,6.029,13.3024,4.60101,2470.646,2022-12-08T07:04:58Z
2022-12-08T05:02:06Z,42.805,6.029,13.3016,4.60089,2470.646,2022-12-08T07:08:01Z
2022-12-08T05:05:10Z,42.805,6.029,13.3019,4.60082,2470.684,2022-12-08T07:11:04Z
2022-12-08T05:08:13Z,42.805,6.029,13.3028,4.60104,2470.684,2022-12-08T07:14:07Z
2022-12-08T05:11:16Z,42.805,6.029,13.3017,4.60102,2470.684,2022-12-08T07:17:10Z
2022-12-08T05:14:19Z,42.805,6.029,13.3021,4.60105,2470.646,2022-12-08T07:20:13Z
2022-12-08T05:17:22Z,42.805,6.029,13.3020,4.60090,2470.661,2022-12-08T07:23:16Z
2022-12-08T05:20:25Z,42.805,6.029,13.3019,4.60079,2470.693,2022-12-08T07:26:19Z
2022-12-08T05:23:28Z,42.805,6.029,13.3015,4.60088,2470.693,2022-12-08T07:29:22Z
2022-12-08T05:26:31Z,42.805,6.029,13.3026,4.60084,2470.717,2022-12-08T07:32:25Z
2022-12-08T05:29:34Z,42.805,6.029,13.3022,4.60108,2470.717,2022-12-08T07:35:29Z
2022-12-08T05:32:37Z,42.805,6.029,13.3024,4.60102,2470.693,2022-12-08T07:38:32Z
2022-12-08T05:35:40Z,42.805,6.029,13.3018,4.60084,2470.73,2022-12-08T07:41:35Z
2022-12-08T05:38:43Z,42.805,6.029,13.3019,4.60086,2470.703,2022-12-08T07:44:38Z
2022-12-08T05:41:47Z,42.805,6.029,13.3019,4.60091,2470.754,2022-12-08T07:47:41Z
2022-12-08T05:44:50Z,42.805,6.029,13.3021,4.60089,2470.693,2022-12-08T07:50:44Z
2022-12-08T05:47:53Z,42.805,6.029,13.3021,4.60093,2470.717,2022-12-08T07:53:47Z
2022-12-08T05:50:56Z,42.805,6.029,13.3019,4.60089,2470.717,2022-12-08T07:56:50Z
2022-12-08T05:53:59Z,42.805,6.029,13.3023,4.60097,2470.73,2022-12-08T07:59:53Z
2022-12-08T05:57:02Z,42.805,6.029,13.3023,4.60095,2470.777,2022-12-08T08:02:56Z
2022-12-08T06:00:05Z,42.805,6.029,13.3019,4.60091,2470.693,2022-12-08T08:05:59Z
2022-12-08T06:03:08Z,42.805,6.029,13.3018,4.60087,2470.73,2022-12-08T08:09:02Z
2022-12-08T06:06:11Z,42.805,6.029,13.3026,4.60092,2470.693,2022-12-08T08:12:06Z
2022-12-08T06:09:14Z,42.805,6.029,13.3019,4.60089,2470.717,2022-12-08T08:15:09Z
2022-12-08T06:12:17Z,42.805,6.029,13.3020,4.60087,2470.73,2022-12-08T08:18:12Z
2022-12-08T06:15:20Z,42.805,6.029,13.3015,4.60085,2470.73,2022-12-08T08:21:15Z
2022-12-08T06:18:23Z,42.805,6.029,13.3026,4.60087,2470.74,2022-12-08T08:24:18Z
2022-12-08T06:21:27Z,42.805,6.029,13.3017,4.60085,2470.74,2022-12-08T08:27:21Z
2022-12-08T06:24:30Z,42.805,6.029,13.3022,4.60085,2470.754,2022-12-08T08:30:24Z
2022-12-08T06:27:33Z,42.805,6.029,13.3024,4.60095,2470.754,2022-12-08T08:33:27Z
2022-12-08T06:30:36Z,42.805,6.029,13.3022,4.60089,2470.754,2022-12-08T08:36:30Z
2022-12-08T06:33:39Z,42.805,6.029,13.3019,4.60081,2470.73,2022-12-08T08:39:33Z
2022-12-08T06:36:42Z,42.805,6.029,13.3020,4.60084,2470.74,2022-12-08T08:42:36Z
2022-12-08T06:39:45Z,42.805,6.029,13.3025,4.60093,2470.74,2022-12-08T08:45:39Z
2022-12-08T06:42:48Z,42.805,6.029,13.3019,4.60080,2470.754,2022-12-08T08:48:43Z
2022-12-08T06:45:51Z,42.805,6.029,13.3027,4.60083,2470.74,2022-12-08T08:51:46Z
2022-12-08T06:48:54Z,42.805,6.029,13.3022,4.60082,2470.74,2022-12-08T08:54:49Z
2022-12-08T06:51:57Z,42.805,6.029,13.3023,4.60099,2470.754,2022-12-08T08:57:52Z
2022-12-08T06:55:00Z,42.805,6.029,13.3022,4.60092,2470.717,2022-12-08T09:00:55Z
2022-12-08T06:58:04Z,42.805,6.029,13.3022,4.60086,2470.754,2022-12-08T09:03:58Z
2022-12-08T07:01:07Z,42.805,6.029,13.3019,4.60079,2470.763,2022-12-08T09:07:01Z
2022-12-08T07:04:10Z,42.805,6.029,13.3025,4.60078,2470.73,2022-12-08T09:10:04Z
2022-12-08T07:07:13Z,42.805,6.029,13.3019,4.60092,2470.74,2022-12-08T09:13:07Z
2022-12-08T07:10:16Z,42.805,6.029,13.3028,4.60088,2470.754,2022-12-08T09:16:10Z
2022-12-08T07:13:19Z,42.805,6.029,13.3024,4.60090,2470.74,2022-12-08T09:19:13Z
2022-12-08T07:16:22Z,42.805,6.029,13.3023,4.60094,2470.74,2022-12-08T09:22:16Z
2022-12-08T07:19:25Z,42.805,6.029,13.3022,4.60081,2470.763,2022-12-08T09:25:20Z
2022-12-08T07:22:28Z,42.805,6.029,13.3025,4.60089,2470.74,2022-12-08T09:28:23Z
2022-12-08T07:25:31Z,42.805,6.029,13.3020,4.60084,2470.74,2022-12-08T09:31:26Z
2022-12-08T07:28:34Z,42.805,6.029,13.3021,4.60097,2470.73,2022-12-08T09:34:29Z
2022-12-08T07:31:37Z,42.805,6.029,13.3024,4.60088,2470.787,2022-12-08T09:37:32Z
2022-12-08T07:34:40Z,42.805,6.029,13.3022,4.60097,2470.74,2022-12-08T09:40:35Z
2022-12-08T07:37:44Z,42.805,6.029,13.3026,4.60092,2470.763,2022-12-08T09:43:38Z
2022-12-08T07:40:47Z,42.805,6.029,13.3020,4.60099,2470.74,2022-12-08T09:46:41Z
2022-12-08T07:43:50Z,42.805,6.029,13.3029,4.60113,2470.787,2022-12-08T09:49:44Z
2022-12-08T07:46:53Z,42.805,6.029,13.3019,4.60087,2470.717,2022-12-08T09:52:47Z
2022-12-08T07:49:56Z,42.805,6.029,13.3019,4.60101,2470.74,2022-12-08T09:55:50Z
2022-12-08T07:52:59Z,42.805,6.029,13.3024,4.60102,2470.74,2022-12-08T09:58:53Z
2022-12-08T07:56:02Z,42.805,6.029,13.3021,4.60094,2470.777,2022-12-08T10:01:57Z
2022-12-08T07:59:05Z,42.805,6.029,13.3027,4.60104,2470.717,2022-12-08T10:05:00Z
2022-12-08T08:02:08Z,42.805,6.029,13.3023,4.60102,2470.74,2022-12-08T10:08:03Z
2022-12-08T08:05:11Z,42.805,6.029,13.3019,4.60086,2470.754,2022-12-08T10:11:06Z
2022-12-08T08:08:14Z,42.805,6.029,13.3021,4.60099,2470.74,2022-12-08T10:14:09Z
2022-12-08T08:11:17Z,42.805,6.029,13.3029,4.60106,2470.763,2022-12-08T10:17:12Z
2022-12-08T08:14:21Z,42.805,6.029,13.3026,4.60112,2470.777,2022-12-08T10:20:15Z
2022-12-08T08:17:24Z,42.805,6.029,13.3031,4.60112,2470.754,2022-12-08T10:23:18Z
2022-12-08T08:20:27Z,42.805,6.029,13.3025,4.60087,2470.74,2022-12-08T10:26:21Z
2022-12-08T08:23:30Z,42.805,6.029,13.3031,4.60090,2470.74,2022-12-08T10:29:24Z
2022-12-08T08:26:33Z,42.805,6.029,13.3021,4.60099,2470.74,2022-12-08T10:32:27Z
2022-12-08T08:29:36Z,42.805,6.029,13.3016,4.60101,2470.754,2022-12-08T10:35:30Z
2022-12-08T08:32:39Z,42.805,6.029,13.3017,4.60089,2470.754,2022-12-08T10:38:34Z
2022-12-08T08:35:42Z,42.805,6.029,13.3024,4.60087,2470.717,2022-12-08T10:41:37Z
2022-12-08T08:38:45Z,42.805,6.029,13.3022,4.60082,2470.74,2022-12-08T10:44:40Z
2022-12-08T08:41:48Z,42.805,6.029,13.3016,4.60104,2470.74,2022-12-08T10:47:43Z
2022-12-08T08:44:51Z,42.805,6.029,13.3019,4.60087,2470.717,2022-12-08T10:50:46Z
2022-12-08T08:47:54Z,42.805,6.029,13.3022,4.60088,2470.717,2022-12-08T10:53:49Z
2022-12-08T08:50:58Z,42.805,6.029,13.3026,4.60095,2470.754,2022-12-08T10:56:52Z
2022-12-08T08:54:01Z,42.805,6.029,13.3021,4.60085,2470.717,2022-12-08T10:59:55Z
2022-12-08T08:57:04Z,42.805,6.029,13.3022,4.60079,2470.717,2022-12-08T11:02:58Z
2022-12-08T09:00:07Z,42.805,6.029,13.3016,4.60078,2470.717,2022-12-08T11:06:01Z
2022-12-08T09:03:10Z,42.805,6.029,13.3021,4.60079,2470.74,2022-12-08T11:09:04Z
2022-12-08T09:06:13Z,42.805,6.029,13.3018,4.60072,2470.74,2022-12-08T11:12:07Z
2022-12-08T09:09:16Z,42.805,6.029,13.3019,4.60081,2470.763,2022-12-08T11:15:11Z
2022-12-08T09:12:19Z,42.805,6.029,13.3024,4.60096,2470.74,2022-12-08T11:18:14Z
2022-12-08T09:15:22Z,42.805,6.029,13.3017,4.60079,2470.717,2022-12-08T11:21:17Z
2022-12-08T09:18:25Z,42.805,6.029,13.3019,4.60079,2470.717,2022-12-08T11:24:20Z
2022-12-08T09:21:28Z,42.805,6.029,13.3022,4.60077,2470.717,2022-12-08T11:27:23Z
2022-12-08T09:24:31Z,42.805,6.029,13.3020,4.60082,2470.74,2022-12-08T11:30:26Z
2022-12-08T09:27:35Z,42.805,6.029,13.3015,4.60084,2470.754,2022-12-08T11:33:29Z
2022-12-08T09:30:38Z,42.805,6.029,13.3026,4.60103,2470.74,2022-12-08T11:36:32Z
2022-12-08T09:33:41Z,42.805,6.029,13.3023,4.60102,2470.717,2022-12-08T11:39:35Z
2022-12-08T09:36:44Z,42.805,6.029,13.3019,4.60090,2470.717,2022-12-08T11:42:38Z
2022-12-08T09:39:47Z,42.805,6.029,13.3023,4.60079,2470.717,2022-12-08T11:45:41Z
2022-12-08T09:42:50Z,42.805,6.029,13.3020,4.60081,2470.693,2022-12-08T11:48:44Z
2022-12-08T09:45:53Z,42.805,6.029,13.3022,4.60087,2470.717,2022-12-08T11:51:48Z
2022-12-08T09:48:56Z,42.805,6.029,13.3020,4.60081,2470.74,2022-12-08T11:54:51Z
2022-12-08T09:51:59Z,42.805,6.029,13.3022,4.60082,2470.693,2022-12-08T11:57:54Z
2022-12-08T09:55:02Z,42.805,6.029,13.3019,4.60092,2470.73,2022-12-08T12:00:57Z
2022-12-08T09:58:05Z,42.805,6.029,13.3018,4.60088,2470.717,2022-12-08T12:04:00Z
2022-12-08T10:01:08Z,42.805,6.029,13.3023,4.60093,2470.73,2022-12-08T12:07:03Z
2022-12-08T10:04:12Z,42.805,6.029,13.3023,4.60103,2470.707,2022-12-08T12:10:06Z
2022-12-08T10:07:15Z,42.805,6.029,13.3020,4.60104,2470.693,2022-12-08T12:13:09Z
2022-12-08T10:10:18Z,42.805,6.029,13.3021,4.60107,2470.707,2022-12-08T12:16:12Z
2022-12-08T10:13:21Z,42.805,6.029,13.3019,4.60084,2470.717,2022-12-08T12:19:15Z
2022-12-08T10:16:24Z,42.805,6.029,13.3026,4.60089,2470.73,2022-12-08T12:22:18Z
2022-12-08T10:19:27Z,42.805,6.029,13.3022,4.60090,2470.693,2022-12-08T12:25:22Z
2022-12-08T10:22:30Z,42.805,6.029,13.3023,4.60080,2470.707,2022-12-08T12:28:25Z
2022-12-08T10:25:33Z,42.805,6.029,13.3020,4.60092,2470.67,2022-12-08T12:31:28Z
2022-12-08T10:28:36Z,42.805,6.029,13.3025,4.60096,2470.693,2022-12-08T12:34:31Z
2022-12-08T10:31:39Z,42.805,6.029,13.3020,4.60084,2470.693,2022-12-08T12:37:34Z
2022-12-08T10:34:42Z,42.805,6.029,13.3019,4.60076,2470.67,2022-12-08T12:40:37Z
2022-12-08T10:37:45Z,42.805,6.029,13.3028,4.60082,2470.646,2022-12-08T12:43:40Z
2022-12-08T10:40:49Z,42.805,6.029,13.3019,4.60079,2470.67,2022-12-08T12:46:43Z
2022-12-08T10:43:52Z,42.805,6.029,13.3024,4.60087,2470.67,2022-12-08T12:49:46Z
2022-12-08T10:46:55Z,42.805,6.029,13.3027,4.60102,2470.661,2022-12-08T12:52:49Z
2022-12-08T10:49:58Z,42.805,6.029,13.3018,4.60087,2470.646,2022-12-08T12:55:52Z
2022-12-08T10:53:01Z,42.805,6.029,13.3024,4.60096,2470.67,2022-12-08T12:58:55Z
2022-12-08T10:56:04Z,42.805,6.029,13.3029,4.60102,2470.646,2022-12-08T13:01:59Z
2022-12-08T10:59:07Z,42.805,6.029,13.3014,4.60077,2470.693,2022-12-08T13:05:02Z
2022-12-08T11:02:10Z,42.805,6.029,13.3023,4.60082,2470.67,2022-12-08T13:08:05Z
2022-12-08T11:05:13Z,42.805,6.029,13.3013,4.60077,2470.684,2022-12-08T13:11:08Z
2022-12-08T11:08:16Z,42.805,6.029,13.3021,4.60081,2470.646,2022-12-08T13:14:11Z
2022-12-08T11:11:19Z,42.805,6.029,13.3021,4.60084,2470.684,2022-12-08T13:17:14Z
2022-12-08T11:14:22Z,42.805,6.029,13.3025,4.60107,2470.637,2022-12-08T13:20:17Z
2022-12-08T11:17:26Z,42.805,6.029,13.3021,4.60095,2470.67,2022-12-08T13:23:20Z
2022-12-08T11:20:29Z,42.805,6.029,13.3019,4.60090,2470.661,2022-12-08T13:26:23Z
2022-12-08T11:23:32Z,42.805,6.029,13.3020,4.60088,2470.646,2022-12-08T13:29:26Z
2022-12-08T11:26:35Z,42.805,6.029,13.3023,4.60089,2470.646,2022-12-08T13:32:29Z
2022-12-08T11:29:38Z,42.805,6.029,13.3019,4.60098,2470.646,2022-12-08T13:35:33Z
2022-12-08T11:32:41Z,42.805,6.029,13.3021,4.60104,2470.624,2022-12-08T13:38:36Z
2022-12-08T11:35:44Z,42.805,6.029,13.3025,4.60091,2470.646,2022-12-08T13:41:39Z
2022-12-08T11:38:47Z,42.805,6.029,13.3023,4.60092,2470.633,2022-12-08T13:44:42Z
2022-12-08T11:41:50Z,42.805,6.029,13.3020,4.60102,2470.646,2022-12-08T13:47:45Z
2022-12-08T11:44:53Z,42.805,6.029,13.3036,4.60112,2470.624,2022-12-08T13:50:48Z
2022-12-08T11:47:56Z,42.805,6.029,13.3023,4.60090,2470.661,2022-12-08T13:53:51Z
2022-12-08T11:51:00Z,42.805,6.029,13.3019,4.60085,2470.646,2022-12-08T13:56:54Z
2022-12-08T11:54:03Z,42.805,6.029,13.3029,4.60118,2470.637,2022-12-08T13:59:57Z
2022-12-08T11:57:06Z,42.805,6.029,13.3024,4.60105,2470.637,2022-12-08T14:03:00Z
2022-12-08T12:00:09Z,42.805,6.029,13.3015,4.60092,2470.637,2022-12-08T14:06:03Z
2022-12-08T12:03:12Z,42.805,6.029,13.3014,4.60087,2470.614,2022-12-08T14:09:06Z
2022-12-08T12:06:15Z,42.805,6.029,13.3033,4.60115,2470.67,2022-12-08T14:12:10Z
2022-12-08T12:09:18Z,42.805,6.029,13.3021,4.60089,2470.624,2022-12-08T14:15:13Z
2022-12-08T12:12:21Z,42.805,6.029,13.3023,4.60098,2470.637,2022-12-08T14:18:16Z
2022-12-08T12:15:24Z,42.805,6.029,13.3015,4.60087,2470.624,2022-12-08T14:21:19Z
2022-12-08T12:18:27Z,42.805,6.029,13.3027,4.60081,2470.6,2022-12-08T14:24:22Z
2022-12-08T12:21:30Z,42.805,6.029,13.3024,4.60081,2470.6,2022-12-08T14:27:25Z
2022-12-08T12:24:33Z,42.805,6.029,13.3017,4.60081,2470.6,2022-12-08T14:30:28Z
2022-12-08T12:27:37Z,42.805,6.029,13.3024,4.60087,2470.614,2022-12-08T14:33:31Z
2022-12-08T12:30:40Z,42.805,6.029,13.3020,4.60104,2470.624,2022-12-08T14:36:34Z
2022-12-08T12:33:43Z,42.805,6.029,13.3020,4.60099,2470.577,2022-12-08T14:39:37Z
2022-12-08T12:36:46Z,42.805,6.029,13.3019,4.60078,2470.6,2022-12-08T14:42:40Z
2022-12-08T12:39:49Z,42.805,6.029,13.3029,4.60094,2470.6,2022-12-08T14:45:44Z
2022-12-08T12:42:52Z,42.805,6.029,13.3022,4.60098,2470.614,2022-12-08T14:48:47Z
2022-12-08T12:45:55Z,42.805,6.029,13.3028,4.60123,2470.637,2022-12-08T14:51:50Z
2022-12-08T12:48:58Z,42.805,6.029,13.3020,4.60089,2470.6,2022-12-08T14:54:53Z
2022-12-08T12:52:01Z,42.805,6.029,13.3027,4.60092,2470.577,2022-12-08T14:57:56Z
2022-12-08T12:55:04Z,42.805,6.029,13.3028,4.60099,2470.624,2022-12-08T15:00:59Z
2022-12-08T12:58:07Z,42.805,6.029,13.3021,4.60093,2470.591,2022-12-08T15:04:02Z
2022-12-08T13:01:10Z,42.805,6.029,13.3016,4.60084,2470.6,2022-12-08T15:07:05Z
2022-12-08T13:04:14Z,42.805,6.029,13.3026,4.60109,2470.6,2022-12-08T15:10:08Z
2022-12-08T13:07:17Z,42.805,6.029,13.3026,4.60101,2470.577,2022-12-08T15:13:11Z
2022-12-08T13:10:20Z,42.805,6.029,13.3035,4.60108,2470.577,2022-12-08T15:16:14Z
2022-12-08T13:13:23Z,42.805,6.029,13.3033,4.60126,2470.591,2022-12-08T15:19:17Z
2022-12-08T13:16:26Z,42.805,6.029,13.3031,4.60122,2470.6,2022-12-08T15:22:21Z
2022-12-08T13:19:29Z,42.805,6.029,13.3019,4.60099,2470.577,2022-12-08T15:25:24Z
2022-12-08T13:22:32Z,42.805,6.029,13.3032,4.60119,2470.624,2022-12-08T15:28:27Z
2022-12-08T13:25:35Z,42.805,6.029,13.3031,4.60115,2470.577,2022-12-08T15:31:30Z
2022-12-08T13:28:38Z,42.805,6.029,13.3015,4.60116,2470.577,2022-12-08T15:34:33Z
2022-12-08T13:31:41Z,42.805,6.029,13.3024,4.60112,2470.614,2022-12-08T15:37:36Z
2022-12-08T13:34:44Z,42.805,6.029,13.3021,4.60128,2470.53,2022-12-08T15:40:39Z
2022-12-08T13:37:47Z,42.805,6.029,13.3023,4.60109,2470.6,2022-12-08T15:43:42Z
2022-12-08T13:40:51Z,42.805,6.029,13.3031,4.60122,2470.6,2022-12-08T15:46:45Z
2022-12-08T13:43:54Z,42.805,6.029,13.3029,4.60101,2470.577,2022-12-08T15:49:48Z
2022-12-08T13:46:57Z,42.805,6.029,13.3036,4.60093,2470.553,2022-12-08T15:52:51Z
2022-12-08T13:50:00Z,42.805,6.029,13.3021,4.60090,2470.577,2022-12-08T15:55:55Z
2022-12-08T13:53:03Z,42.805,6.029,13.3024,4.60118,2470.577,2022-12-08T15:58:58Z
2022-12-08T13:56:06Z,42.805,6.029,13.3018,4.60090,2470.591,2022-12-08T16:02:01Z
2022-12-08T13:59:09Z,42.805,6.029,13.3015,4.60118,2470.614,2022-12-08T16:05:04Z
2022-12-08T14:02:12Z,42.805,6.029,13.3027,4.60125,2470.614,2022-12-08T16:08:07Z
2022-12-08T14:05:15Z,42.805,6.029,13.3025,4.60109,2470.591,2022-12-08T16:11:10Z
2022-12-08T14:08:18Z,42.805,6.029,13.3023,4.60112,2470.591,2022-12-08T16:14:13Z
2022-12-08T14:11:21Z,42.805,6.029,13.3027,4.60092,2470.577,2022-12-08T16:17:16Z
2022-12-08T14:14:24Z,42.805,6.029,13.3028,4.60113,2470.6,2022-12-08T16:20:19Z
2022-12-08T14:17:28Z,42.805,6.029,13.3028,4.60104,2470.591,2022-12-08T16:23:22Z
2022-12-08T14:20:31Z,42.805,6.029,13.3026,4.60091,2470.6,2022-12-08T16:26:25Z
2022-12-08T14:23:34Z,42.805,6.029,13.3020,4.60104,2470.577,2022-12-08T16:29:28Z
2022-12-08T14:26:37Z,42.805,6.029,13.3020,4.60097,2470.6,2022-12-08T16:32:32Z
2022-12-08T14:29:40Z,42.805,6.029,13.3022,4.60096,2470.6,2022-12-08T16:35:35Z
2022-12-08T14:32:43Z,42.805,6.029,13.3027,4.60091,2470.577,2022-12-08T16:38:38Z
2022-12-08T14:35:46Z,42.805,6.029,13.3023,4.60119,2470.6,2022-12-08T16:41:41Z
2022-12-08T14:38:49Z,42.805,6.029,13.3016,4.60084,2470.614,2022-12-08T16:44:44Z
2022-12-08T14:41:52Z,42.805,6.029,13.3029,4.60089,2470.637,2022-12-08T16:47:47Z
2022-12-08T14:44:55Z,42.805,6.029,13.3023,4.60115,2470.6,2022-12-08T16:50:50Z
2022-12-08T14:47:58Z,42.805,6.029,13.3024,4.60100,2470.6,2022-12-08T16:53:53Z
2022-12-08T14:51:02Z,42.805,6.029,13.3031,4.60111,2470.591,2022-12-08T16:56:56Z
2022-12-08T14:54:05Z,42.805,6.029,13.3015,4.60098,2470.591,2022-12-08T16:59:59Z
2022-12-08T14:57:08Z,42.805,6.029,13.3024,4.60081,2470.6,2022-12-08T17:03:02Z
2022-12-08T15:00:11Z,42.805,6.029,13.3017,4.60091,2470.614,2022-12-08T17:06:06Z